Вернуться в каталог

STARLINK-30947

АктивенСвязьVLEO
NORAD 58473·PAYLOAD·🇺🇸 United States

Запущен Dec 3, 2023 с Cape Canaveral Space Force Station

Loading…

Ближайшие Пролёты (ближайшие 24 часа)

TLE

СвежийSource: CelesTrak SupGP

Эпоха: Sep 14, 2026, 22:28 UTC

1 58473C 23186A   26257.93659722  .00066049  00000+0  23903-2 0  2572
2 58473  43.0015  78.4317 0001613 266.4048 230.9407 15.27572500    13

Отслеживайте STARLINK-30947 в реальном времени с AllMySat

Download on the App Store